Miscellaneous Local Product
Issued by NWS Hastings, NE

Home | Current Version | Previous Version | Text Only | Print | Product List | Glossary Off
Versions: 1 2 3 4 5 6 7 8 9 10 11 12 13 14 15 16 17 18 19 20 21 22 23 24 25 26 27 28 29 30 31 32 33 34 35 36 37 38 39 40 41 42 43 44 45 46 47 48 49 50

000
AXUS43 KGID 271102
MISGRI

GID CWA HOURLY WEATHER ROUNDUP
NATIONAL WEATHER SERVICE HASTINGS NE
600 AM CDT THU AUG 27 2015

NOTE: "FAIR" INDICATES FEW OR NO CLOUDS BELOW 12,000 FEET WITH NO
SIGNIFICANT WEATHER AND/OR OBSTRUCTIONS TO VISIBILITY.

...SOUTH CENTRAL NEBRASKA...

CITY           SKY/WX    TMP DP  RH WIND       PRES   REMARKS
GRAND ISLAND   CLOUDY    67  65  93 SE12      29.96F
HASTINGS       CLOUDY    68  67  96 MISG      29.96F
KEARNEY        CLOUDY    66  64  94 SE10      29.94F
ORD            CLOUDY    66  64  93 SE8       29.95R
YORK           CLOUDY    66  64  94 SE6       29.99R
AURORA         CLOUDY    66  65  99 SE9       29.97F
LEXINGTON      MOCLDY    67  65  95 SE6       29.94F FOG
HOLDREGE       CLOUDY    68  66  93 S8        29.95F
HEBRON         MOCLDY    70  65  84 S8        29.99F

...NEBRASKA PANHANDLE...

CITY           SKY/WX    TMP DP  RH WIND       PRES   REMARKS
CHADRON        CLOUDY    63  57  81 CALM      29.99F
ALLIANCE       MOCLDY    67  65  93 NE9       29.97F
SCOTTSBLUFF    CLOUDY    68  64  87 NW5       30.03S
SIDNEY         PTCLDY    62  49  62 NW9       30.02S

...WESTERN AND NORTH CENTRAL NEBRASKA...

CITY           SKY/WX    TMP DP  RH WIND       PRES   REMARKS
VALENTINE      CLOUDY    69  65  86 E14       29.95R
AINSWORTH      CLOUDY    68  67  94 E12       29.97F
ONEILL         CLOUDY    69  66  92 E7        30.02F
BROKEN BOW     CLOUDY    67  66  97 SE3       29.94F FOG
IMPERIAL       PTCLDY    64  51  62 SW3       29.96F
NORTH PLATTE   MOCLDY    61  60  97 E8        29.93F
MCCOOK         PTCLDY    73  54  51 SW5       29.94F

...EASTERN NEBRASKA...

CITY           SKY/WX    TMP DP  RH WIND       PRES   REMARKS
NORFOLK        LGT RAIN  67  63  87 SE8       30.00F
SO SIOUX CITY  CLOUDY    62  58  86 SE8       30.01F
TEKAMAH        CLOUDY    62  59  90 SE8       30.02F
COLUMBUS       CLOUDY    66  59  77 S5        30.00F
ALBION         CLOUDY    67  62  83 NE13      30.01R THUNDER
OMAHA EPPLEY   MOCLDY    66  58  75 SE15      30.03F
OFFUTT AFB     MOCLDY    64  58  82 E8        30.02F
MILLARD        MOCLDY    66  61  83 SE9       30.02F THUNDER
LINCOLN        MOCLDY    69  61  75 S10       30.01S
NEBRASKA CITY  MOCLDY    65  58  79 SE7       30.04F
BEATRICE       MOCLDY    68  61  78 SE8       30.01S
FALLS CITY     MOCLDY    64  60  87 SE7       30.04F

...NORTHERN KANSAS...

CITY           SKY/WX    TMP DP  RH WIND       PRES   REMARKS
GOODLAND       CLOUDY    71  53  52 S9        30.00F
HILL CITY      MOCLDY    72  59  63 SW9       29.97F
NORTON         SUNNY     61  52  72 S3        29.95F
PHILLIPSBURG   CLEAR     70  70 100 E6        29.96F
SMITH CENTER   CLEAR     68  66  94 E9        29.97F
HAYS           MOCLDY    72  55  56 SW12      29.98F
RUSSELL        MOCLDY    69  65  86 S10       29.97F
CONCORDIA      MOCLDY    70  68  93 SE12      29.99F
SALINA         PTCLDY    72  68  87 S7        29.99F
TOPEKA         PTCLDY    67  61  81 SE5       30.05F



USA.gov is the U.S. government's official web portal to all federal, state and local government web resources and services.